Regional Weather Roundup
Issued by NWS Green Bay, WI

Home | Current Version | Previous Version | Graphics & Text | Print | Product List | Glossary Off
Versions: 1 2 3 4 5 6 7 8 9 10 11 12 13 14 15 16 17 18 19 20 21 22 23 24 25 26 27 28 29 30 31 32 33 34 35 36 37 38 39 40 41 42 43 44 45 46 47 48 49 50

000
ASUS43 KGRB 290859
RWRGRB

NORTH-CENTRAL AND NORTHEAST WISCONSIN REGIONAL WEATHER ROUNDUP
NATIONAL WEATHER SERVICE GREEN BAY WI
300 AM CST MON DEC 29 2014

WIZ005-009-010>012-018-019-291000-
NORTH CENTRAL WISCONSIN

CITY           SKY/WX    TMP DP  RH WIND       PRES   REMARKS
IRONWOOD       CLOUDY     5   1  85 SW12      30.30R WCI -11
MANITOWISH WTR NOT AVBL
ARBOR VITAE    NOT AVBL
EAGLE RIVER    NOT AVBL
LAND O LAKES   NOT AVBL
RHINELANDER    PTCLDY    -2  -5  87 NW5       30.27S WCI -12
PHILLIPS       PTCLDY   -16 -21  79 CALM      30.31S
ANTIGO         NOT AVBL
TOMAHAWK       NOT AVBL
MERRILL        NOT AVBL
$$

WIZ013-073-291000-
NORTHEAST WISCONSIN

CITY           SKY/WX    TMP DP  RH WIND       PRES   REMARKS
IRON MOUNTAIN    N/A      1  -4  79 NW5       30.26S WCI  -9
MARINETTE      CLEAR     10   5  79 W3        30.32S
$$

WIZ017-030-035>037-045-291000-
CENTRAL WISCONSIN

CITY           SKY/WX    TMP DP  RH WIND       PRES   REMARKS
MEDFORD        NOT AVBL
WAUSAU         MOCLDY     2  -1  88 NW6       30.30S WCI  -9
MOSINEE        NOT AVBL
MARSHFIELD     MOCLDY     5   0  79 N7        30.32R WCI  -7
WISC RAPIDS    PTCLDY    11   5  77 N7        30.34S WCI   0
STEVENS POINT  NOT AVBL
WAUPACA        MOCLDY    15   7  72 N5        30.35R WCI   7
SHAWANO        PTCLDY    12   7  79 CALM      30.34S
CLINTONVILLE   MOCLDY    12   5  73 N3        30.34S
$$

WIZ038-039-048-051-291000-
FOX VALLEY

CITY           SKY/WX    TMP DP  RH WIND       PRES   REMARKS
NWS GREEN BAY  PTCLDY    15   7  70 N7        30.34S WCI   5
APPLETON       NOT AVBL
OSHKOSH        MOCLDY    16   7  67 N12       30.32R WCI   3
FOND DU LAC    MOCLDY    18   9  68 N8        30.33R WCI   8
$$

WIZ022-050-052-291000-
EAST CENTRAL WISCONSIN

CITY           SKY/WX    TMP DP  RH WIND       PRES   REMARKS
STURGEON BAY   PTCLDY    16   7  67 N12       30.33S WCI   3
MANITOWOC      NOT AVBL
SHEBOYGAN      PTCLDY    17   9  70 N8        30.32R WCI   7
$$

LMZ563-521-522-541>543-291000-
LAKESHORE

STATION/POSITION TIME  TEMP    WIND        PRES    VSBY  WAVE
                       AIR SEA DIR/SP/G                  HT/PER
                 (UTC) (F)     (DEG/KT/KT) (MB)    (MI)  (FT/S)
SHEBOYGAN LKSHOR 0800   21 36  360/ 17/ 18 1027.7R
KEWAUNEE LKSHORE 0800   16     350/  3/  7 1026.1R
ALGOMA MARINA    0800          330/  8/ 10   N/A
NORTHPORT PIER   0800   18     310/ 12/ 20 1026.4R
SISTER BAY LKSHO 0800          330/ 18/ 22   N/A
CHAMBERS ISLAND  0800   15     300/  7/ 12 1026.8R
MENOMINEE LKSHOR 0800   12     270/  5/  8 1027.8R
$$



USA.gov is the U.S. government's official web portal to all federal, state and local government web resources and services.